Estación de Longaví Norte
Ultimos registro cada 15 minutos 22
| N° | Estación | Fecha / Hora | Temperatura | Humedad | Lluvia | Velocidad | Dirección | Radiación | Presion |
| 22 | Longaví Norte | 01-09-2026 05:15 | 6,7 | 99,5 | 0 | 0 | 204 | 0,6 | 1003,6 |
| 21 | Longaví Norte | 01-09-2026 05:00 | 7,1 | 99,4 | 0 | 0 | 204 | 0,6 | 1003,6 |
| 20 | Longaví Norte | 01-09-2026 04:45 | 7,4 | 99,3 | 0 | 0 | 204 | 0,6 | 1003,6 |
| 19 | Longaví Norte | 01-09-2026 04:30 | 7,7 | 99,1 | 0 | 0 | 204 | 0,6 | 1003,5 |
| 18 | Longaví Norte | 01-09-2026 04:15 | 7,7 | 99 | 0 | 0 | 204 | 0,6 | 1003,5 |
| 17 | Longaví Norte | 01-09-2026 04:00 | 7,9 | 98,8 | 0 | 0 | 204 | 0,6 | 1003,3 |
| 16 | Longaví Norte | 01-09-2026 03:45 | 7,8 | 98,6 | 0 | 0 | 204 | 0,6 | 1003,2 |
| 15 | Longaví Norte | 01-09-2026 03:30 | 8,1 | 98,5 | 0 | 0 | 204 | 0,6 | 1003,3 |
| 14 | Longaví Norte | 01-09-2026 03:15 | 8,1 | 98,5 | 0 | 0 | 204 | 0,6 | 1003,4 |
| 13 | Longaví Norte | 01-09-2026 03:00 | 8,1 | 99 | 0 | 0 | 204 | 0,6 | 1003,5 |
| 12 | Longaví Norte | 01-09-2026 02:45 | 7,8 | 98,5 | 0 | 0 | 204 | 0,6 | 1003,7 |
| 11 | Longaví Norte | 01-09-2026 02:30 | 8 | 98,5 | 0 | 0 | 204 | 0,6 | 1003,8 |
| 10 | Longaví Norte | 01-09-2026 02:15 | 7,8 | 98,2 | 0 | 0 | 204 | 0,6 | 1004,1 |
| 9 | Longaví Norte | 01-09-2026 02:00 | 8 | 98,2 | 0 | 0 | 204 | 0,6 | 1004,2 |
| 8 | Longaví Norte | 01-09-2026 01:45 | 8 | 98 | 0 | 0 | 204 | 0,6 | 1004,3 |
| 7 | Longaví Norte | 01-09-2026 01:30 | 8,1 | 97,9 | 0 | 0 | 204 | 0,6 | 1004,4 |
| 6 | Longaví Norte | 01-09-2026 01:15 | 8,1 | 97,8 | 0 | 0 | 204 | 0,6 | 1004,5 |
| 5 | Longaví Norte | 01-09-2026 01:00 | 8,1 | 97,5 | 0 | 0 | 204 | 0,6 | 1004,4 |
| 4 | Longaví Norte | 01-09-2026 00:45 | 8,4 | 97,3 | 0 | 0 | 204 | 0,6 | 1004,4 |
| 3 | Longaví Norte | 01-09-2026 00:30 | 8,4 | 97,2 | 0 | 0 | 204 | 0,6 | 1004,5 |
| 2 | Longaví Norte | 01-09-2026 00:15 | 8,3 | 97,2 | 0 | 0 | 204 | 0,6 | 1004,3 |
| 1 | Longaví Norte | 01-09-2026 00:00 | 8,2 | 97,1 | 0 | 0 | 204 | 0,6 | 1004,3 |